Dewpoint
55 43 37 28 23 20 19 21 22 14 10 13 24 25 24 30 35 48 55 54 63 65 72 75 77 78 77 77 77 76 76 76 76 76 76 76 76 76 76 76 75 74 73 70 68 67 65 64 63
45 44 37 29 22 17 19 20 19 15 15 16 19 23 24 35 44 50 53 55 64 66 72 73 77 77 77 77 77 76 76 76 76 76 76 76 76 76 76 75 75 73 71 69 67 64 63 63 62
46 44 33 28 19 16 17 17 16 13 12 13 15 18 23 39 42 44 53 55 66 67 70 74 77 77 77 77 77 76 76 76 76 76 76 76 76 76 75 75 74 73 70 68 65 66 66 65 64
38 38 35 26 23 17 15 16 16 16 13 12 15 19 21 40 42 46 53 55 63 67 66 75 77 77 77 77 77 77 76 76 76 76 76 76 76 76 75 75 74 73 71 68 68 68 67 66 65
34 35 32 29 23 22 21 18 17 16 15 12 15 20 28 41 42 47 54 53 53 64 65 73 76 77 77 77 77 77 77 76 76 76 76 76 76 75 75 75 74 73 71 69 69 68 68 68 67
29 33 30 26 25 26 23 20 17 14 16 17 14 15 29 39 38 43 54 54 51 60 66 73 76 77 76 77 77 77 76 76 76 76 76 76 76 75 75 74 74 72 71 70 70 69 69 69 68
26 29 30 28 26 25 25 24 20 17 19 20 23 16 30 36 36 35 52 54 53 56 65 71 72 75 77 76 76 76 76 76 76 76 76 76 75 74 74 73 73 72 72 71 70 70 70 70 69
24 28 27 28 27 25 26 25 24 23 24 25 30 27 34 38 38 33 35 54 52 52 62 69 69 71 74 75 76 75 75 75 75 75 75 75 74 74 73 72 72 72 72 71 71 71 70 70 70
23 23 23 23 24 26 26 25 27 27 27 27 28 29 30 34 35 33 35 44 53 52 60 66 66 70 70 71 74 75 75 75 75 74 75 73 72 71 70 70 71 72 72 72 71 71 71 70 70
21 20 20 20 21 22 24 25 25 29 29 30 31 30 30 31 33 32 32 39 55 55 55 62 67 67 67 64 73 73 73 73 73 73 73 72 71 70 65 68 71 71 72 72 71 71 71 70 62
20 21 20 19 19 19 20 21 25 29 30 32 31 32 32 33 38 34 32 39 46 56 55 62 67 69 66 63 72 69 70 70 71 71 72 72 69 70 66 67 66 69 71 66 68 68 67 63 61
15 19 21 20 20 19 18 20 21 26 34 33 33 34 33 32 35 34 34 39 45 61 61 64 66 69 71 64 69 67 66 68 68 69 71 71 70 70 70 66 66 67 66 65 64 64 64 63 62
11 13 16 19 20 20 20 19 21 23 31 31 34 33 32 32 34 39 38 47 54 61 64 64 68 70 69 74 67 67 65 66 67 69 70 70 68 71 71 72 69 68 67 65 65 63 66 65 64
11 12 15 17 19 20 19 20 21 24 27 26 26 28 27 27 30 37 43 45 54 57 63 66 67 72 72 73 74 75 67 68 67 68 69 70 71 69 71 72 71 70 70 68 65 66 67 67 65
13 12 14 15 16 18 19 19 19 21 21 20 22 26 25 26 28 35 44 50 58 59 65 64 70 72 73 73 75 74 74 68 67 68 70 70 71 73 71 70 70 70 70 71 71 70 70 68 66
15 14 10 11 12 15 16 16 18 20 20 20 20 22 23 25 27 33 42 50 53 58 62 64 64 70 72 72 72 74 73 70 71 70 72 71 71 73 74 70 70 69 71 71 69 69 68 66 65
14 12 9 7 8 7 10 12 12 12 15 18 21 23 21 26 32 39 40 51 56 59 62 66 71 71 71 73 72 73 73 73 72 73 70 72 72 71 72 70 70 72 70 69 69 70 68 67 65
10 8 10 10 8 7 7 9 11 12 15 17 20 21 24 25 31 39 43 48 53 59 61 65 69 71 72 71 72 71 71 71 71 70 69 70 70 71 71 70 71 72 69 68 68 69 68 67 66
12 12 13 14 11 14 15 16 16 16 18 19 23 26 28 29 31 37 43 46 48 57 62 62 68 71 71 70 68 68 68 68 67 68 68 68 69 70 71 70 70 71 69 67 69 68 68 66 68
16 14 14 14 14 14 15 15 17 19 21 22 25 26 27 29 30 35 42 47 50 59 61 63 64 70 70 68 70 68 67 68 68 66 68 69 68 69 69 69 68 69 66 67 67 68 66 66 67
15 13 12 10 12 14 15 16 18 17 20 22 22 26 26 30 32 35 39 45 50 54 59 58 63 65 67 71 72 71 71 72 71 66 66 66 66 66 69 70 68 68 67 64 67 69 68 65 68
12 12 12 13 13 12 15 12 17 17 17 21 22 24 24 26 30 34 38 44 49 52 55 57 60 61 63 67 69 71 70 67 69 70 69 68 68 68 69 68 68 67 68 66 66 69 69 68 65
12 13 14 13 13 14 13 11 14 17 14 16 20 18 21 24 28 31 35 39 45 48 52 58 60 61 61 64 66 66 67 68 65 67 69 67 66 70 68 69 69 68 68 67 68 67 70 70 69
15 15 16 16 15 13 14 12 12 12 15 16 18 19 20 20 26 29 35 41 42 48 50 56 60 58 60 61 65 67 66 66 67 66 62 65 65 65 66 70 70 69 67 65 69 70 71 71 71
17 19 13 14 14 14 15 13 16 18 17 15 19 19 22 24 27 29 36 37 42 43 47 49 52 58 57 59 61 61 64 65 65 66 66 64 64 66 66 70 66 65 62 62 65 64 71 74 71
18 19 18 16 18 18 19 23 14 18 18 19 20 21 21 26 29 32 35 40 37 42 46 48 52 54 56 58 58 60 61 63 61 62 62 62 66 67 65 68 66 62 62 64 64 67 72 73 73
24 16 19 23 27 22 17 19 23 21 20 21 21 23 25 28 32 34 37 39 40 44 48 49 48 52 53 55 59 61 62 62 59 62 65 63 67 65 67 67 67 65 67 70 69 71 72 73 73
24 22 20 25 20 15 12 14 13 24 22 21 22 23 25 27 28 32 33 38 44 46 46 53 54 53 53 54 56 55 59 60 61 63 63 64 64 64 67 66 70 70 71 71 73 73 73 73 72
26 23 21 28 29 27 20 19 31 29 31 30 29 25 26 28 27 29 31 37 40 43 43 50 52 52 51 52 54 57 56 58 60 60 61 61 65 66 66 66 67 70 72 73 73 73 72 72 71
22 25 26 28 26 21 20 17 30 30 28 35 31 28 25 28 29 29 30 34 35 37 39 42 48 48 48 49 52 55 57 59 60 58 60 63 63 65 65 66 66 65 65 70 72 72 71 71 70
Lifted_Index
7 6 6 6 5 4 3 3 1 0 1 2 2 1 1 1 0 -1 -1 -2 -3 -4 -5 -6 -6 -6 -6 -6 -5 -5 -4 -4 -4 -4 -4 -4 -4 -4 -4 -3 -3 -2 -1 1 2 3 4 4 5
6 6 6 6 5 4 3 2 1 1 1 2 2 2 1 1 -0 -0 -1 -2 -3 -4 -5 -6 -6 -6 -6 -6 -6 -5 -5 -4 -4 -4 -4 -4 -4 -4 -4 -3 -3 -2 -1 1 2 3 4 5 5
5 5 5 5 5 3 2 1 1 1 2 3 3 3 2 1 1 0 -0 -2 -3 -4 -5 -6 -6 -6 -6 -6 -6 -6 -5 -5 -4 -4 -4 -4 -4 -4 -4 -4 -3 -2 -1 1 2 3 4 5 5
5 4 4 5 5 4 2 2 2 2 2 3 3 3 3 2 2 1 0 -1 -3 -4 -5 -6 -7 -7 -7 -7 -7 -6 -6 -5 -5 -5 -4 -5 -4 -4 -4 -4 -3 -2 -1 1 2 3 3 4 4
5 4 4 4 4 4 3 2 3 2 2 3 3 3 2 2 2 2 -0 -2 -3 -4 -5 -6 -7 -7 -7 -7 -7 -7 -6 -6 -5 -5 -5 -5 -5 -4 -4 -4 -3 -2 -1 0 1 2 2 3 3
5 4 4 4 3 3 2 3 3 3 3 2 3 3 2 2 3 2 -0 -2 -3 -4 -5 -6 -7 -7 -7 -7 -7 -7 -6 -6 -6 -6 -6 -5 -5 -5 -4 -4 -3 -2 -1 -0 0 1 1 1 2
6 5 4 4 3 2 1 2 2 3 3 2 2 2 2 2 3 3 0 -2 -3 -4 -5 -6 -6 -7 -7 -7 -7 -6 -6 -6 -6 -6 -6 -5 -5 -4 -4 -3 -3 -2 -2 -1 -1 -0 0 0 1
6 5 5 4 2 1 1 1 2 2 2 2 1 2 2 3 4 4 2 -1 -3 -4 -5 -6 -6 -6 -6 -6 -6 -6 -6 -6 -6 -6 -5 -5 -4 -4 -3 -3 -2 -2 -2 -2 -1 -1 -0 -0 -0
6 6 6 5 3 1 0 0 1 2 2 1 1 1 2 3 4 5 4 0 -2 -3 -4 -5 -5 -5 -5 -5 -6 -6 -6 -6 -6 -6 -5 -5 -4 -3 -3 -2 -2 -2 -2 -2 -2 -1 -1 -0 -0
6 6 6 5 3 1 0 0 0 1 1 2 1 1 2 2 3 4 4 2 -1 -3 -4 -5 -5 -5 -4 -5 -5 -6 -5 -5 -5 -5 -5 -5 -4 -3 -2 -1 -1 -2 -2 -2 -2 -1 -1 -0 1
5 6 5 5 3 2 1 0 0 0 1 1 1 1 1 2 3 4 4 3 0 -2 -4 -4 -5 -5 -4 -4 -5 -5 -5 -5 -5 -5 -5 -5 -4 -3 -2 -1 -1 -2 -2 -2 -1 -1 -1 0 1
5 5 5 4 3 2 1 1 1 0 1 1 1 1 2 2 3 4 4 3 2 -1 -3 -4 -5 -6 -5 -5 -5 -5 -4 -4 -5 -5 -5 -5 -4 -4 -3 -3 -2 -2 -2 -1 -1 -1 -1 -1 -0
5 4 4 4 3 2 2 2 1 1 1 1 1 2 3 3 3 3 3 3 2 -0 -3 -4 -6 -6 -6 -6 -6 -5 -4 -4 -5 -5 -5 -5 -5 -5 -5 -5 -4 -3 -3 -2 -2 -2 -2 -2 -2
4 4 4 4 4 3 3 3 3 3 2 2 2 3 4 4 3 3 3 2 1 0 -2 -4 -5 -6 -7 -6 -7 -6 -5 -4 -5 -5 -6 -6 -6 -6 -6 -6 -5 -5 -4 -4 -3 -3 -4 -4 -4
5 4 4 5 4 4 4 4 4 3 3 3 3 3 3 4 3 3 3 2 1 -0 -1 -2 -5 -6 -7 -7 -7 -7 -6 -5 -5 -5 -6 -7 -7 -7 -7 -6 -6 -5 -5 -4 -5 -5 -4 -4 -4
4 4 4 4 4 4 4 4 4 4 4 4 4 3 3 4 3 3 3 2 1 0 -0 -2 -4 -6 -7 -6 -7 -7 -6 -6 -6 -6 -6 -7 -7 -7 -7 -6 -6 -5 -5 -5 -5 -5 -5 -4 -4
3 3 3 3 3 3 3 4 4 4 4 4 4 4 4 4 3 3 2 2 2 1 -0 -2 -4 -6 -6 -6 -7 -7 -6 -6 -6 -6 -6 -6 -7 -7 -7 -6 -6 -5 -5 -5 -5 -5 -5 -5 -4
2 2 2 2 1 1 2 3 4 4 4 4 4 4 4 4 4 3 2 3 3 1 -0 -2 -4 -6 -6 -6 -6 -6 -6 -5 -5 -5 -5 -5 -6 -6 -6 -6 -6 -5 -5 -4 -4 -5 -5 -5 -5
2 2 2 1 1 1 2 3 4 4 4 4 4 4 4 4 4 3 3 3 3 2 -0 -2 -4 -5 -6 -6 -5 -5 -5 -5 -4 -4 -4 -4 -5 -6 -6 -6 -5 -5 -4 -4 -4 -5 -5 -5 -6
2 2 2 2 1 1 2 3 4 4 4 4 4 4 4 4 4 3 3 3 3 2 0 -1 -3 -5 -5 -5 -5 -5 -5 -5 -5 -4 -4 -4 -4 -5 -5 -5 -5 -4 -4 -3 -4 -5 -6 -6 -6
3 3 2 2 1 1 2 3 4 4 4 4 4 4 4 3 3 3 3 3 3 2 1 -0 -1 -3 -4 -4 -5 -5 -5 -5 -5 -4 -4 -4 -3 -4 -4 -5 -4 -4 -3 -3 -4 -5 -6 -6 -7
2 2 1 1 1 2 2 3 3 3 3 3 4 4 4 4 4 4 4 4 3 2 2 1 0 -1 -2 -3 -4 -4 -5 -5 -4 -4 -4 -4 -4 -4 -4 -4 -4 -4 -3 -3 -4 -5 -7 -7 -7
1 1 0 1 2 2 3 3 3 2 2 2 3 4 5 4 4 4 4 4 4 3 3 2 1 0 -0 -1 -2 -3 -3 -4 -4 -4 -4 -4 -4 -4 -4 -4 -4 -4 -4 -4 -5 -6 -7 -8 -9
0 0 0 0 1 2 3 3 2 2 1 1 2 4 5 5 5 4 4 4 4 4 3 3 2 1 1 0 -1 -1 -2 -2 -3 -3 -3 -3 -3 -3 -3 -4 -4 -3 -3 -3 -4 -5 -6 -9 -10
0 0 0 -0 0 1 2 2 1 1 0 1 2 3 4 4 4 4 4 4 4 4 4 4 3 2 1 1 0 -0 -1 -1 -2 -2 -2 -2 -2 -2 -3 -4 -3 -1 -1 -1 -2 -3 -6 -9 -11
0 0 0 -0 -0 0 1 1 1 0 0 1 2 3 3 4 4 3 3 3 4 4 4 4 4 3 2 2 1 0 -0 -1 -1 -1 -1 -2 -3 -3 -4 -3 -2 -1 -1 -2 -3 -5 -8 -10 -11
-0 0 0 -0 -0 0 1 1 0 0 0 1 2 2 2 3 3 3 3 3 4 4 4 4 4 4 3 2 1 1 -0 -1 -1 -1 -1 -2 -3 -4 -4 -4 -3 -4 -5 -6 -7 -9 -10 -11 -11
-0 -0 -0 -0 -0 0 1 1 0 -0 0 1 1 1 2 2 2 2 3 3 3 4 4 4 3 3 3 3 2 2 1 -0 -1 -2 -2 -2 -3 -4 -4 -4 -5 -6 -8 -9 -10 -11 -11 -11 -11
-1 -0 -1 -1 -0 -0 0 0 0 -0 0 0 1 1 1 1 1 2 2 3 3 3 3 3 3 3 3 3 3 2 2 1 0 -0 -1 -2 -3 -4 -5 -5 -6 -7 -9 -10 -11 -11 -11 -11 -10
-0 -1 -1 -1 -0 -0 -0 0 0 0 0 0 0 0 0 1 1 1 2 2 3 3 3 3 3 3 3 3 3 2 2 1 1 1 0 -1 -3 -4 -5 -6 -6 -7 -8 -10 -11 -11 -11 -10 -10